COSMOS 1892

Last updated on Sat Jul 05 2025 00:02:13 GMT+0000 (Coordinated Universal Time)

1 18421U 87088A 25185.62582113 .00045299 00000+0 43745-3 0 9990 2 18421 82.4798 220.0730 0005951 79.0767 281.1162 15.66249644 66062
UTC large
Height (km)
Speed (km/s)
/
Latitude / Longitude
Inclination (degrees)
Orbital Period (minutes)
Azimuth
Elevation
Range (km)
Doppler Factor

Next 0 passes for location: London (51.5072 / 0.1276)

Sorry there are no passes over London.